Regional Weather Roundup
Issued by NWS Little Rock, AR

Home | Current Version | Previous Version | Text Only | Print | Product List | Glossary Off
Versions: 1 2 3 4 5 6 7 8 9 10 11 12 13 14 15 16 17 18 19 20 21 22 23 24 25 26 27 28 29 30 31 32 33 34 35 36 37 38 39 40 41 42 43 44 45 46 47 48 49 50

000
ASUS44 KLZK 221005
RWRLZK

WEATHER ROUNDUP FOR ARKANSAS
NATIONAL WEATHER SERVICE LITTLE ROCK AR
500 AM CDT MON SEP 22 2014

NOTE: "FAIR" INDICATES FEW OR NO CLOUDS BELOW 12,000 FEET WITH NO
SIGNIFICANT WEATHER AND/OR OBSTRUCTIONS TO VISIBILITY.

ARZ001-003-010-029-221100-
NORTHWEST ARKANSAS

CITY           SKY/WX    TMP DP  RH WIND       PRES   REMARKS
FAYETTEVILLE   CLEAR     49  49 100 CALM      30.24R
FORT SMITH     CLEAR     59  54  83 E3        30.20R
HARRISON       CLEAR     52  49  89 NW3       30.24R
BENTONVILLE    CLEAR     55  48  76 NE3       30.25R
ROGERS         CLEAR     52  49  89 CALM      30.25R
SILOAM SPGS    CLEAR     57  45  62 NE3       30.25R
HIGHFILL       CLEAR     52  49  89 N5        30.24R
$$

ARZ004-005-016-221100-
NORTH CENTRAL ARKANSAS

CITY           SKY/WX    TMP DP  RH WIND       PRES   REMARKS
BATESVILLE     CLEAR     59  48  67 N3        30.19R
FLIPPIN        CLEAR     55  46  71 N5        30.23R
MTN HOME       CLEAR     56  49  77 NE3       30.22R
$$

ARZ040-041-221100-
WEST CENTRAL ARKANSAS

CITY           SKY/WX    TMP DP  RH WIND       PRES   REMARKS
MENA             N/A     57  55  94 CALM        N/A
MOUNT IDA      CLEAR     57  55  93 CALM      30.16R
$$

ARZ009-017-025-026-028-221100-
NORTHEAST ARKANSAS

CITY           SKY/WX    TMP DP  RH WIND       PRES   REMARKS
CORNING          N/A     55  50  82 N5        30.20R
JONESBORO      CLEAR     61  51  70 N9        30.17R
NEWPORT        CLEAR     58  52  80 N14       30.19R
WALNUT RIDGE   CLEAR     55  21  26 N8        30.18R
BLYTHEVILLE    CLEAR     55  53  93 N8        30.17R
$$

ARZ022-023-033-042-044-221100-
CENTRAL ARKANSAS

CITY           SKY/WX    TMP DP  RH WIND       PRES   REMARKS
LITTLE ROCK    CLEAR     62  49  62 N7        30.17R
N LITTLE ROCK    N/A     61  52  72 N8        30.17R
JACKSONVILLE   CLEAR     56  50  81 CALM      30.17R
SEARCY         CLEAR     59  50  72 N6        30.19R
HOT SPRINGS    CLEAR     65  49  56 VRB3      30.17R
RUSSELLVILLE   CLEAR     55  52  89 CALM      30.19R
CLINTON        FAIR      54  54 100 CALM      30.21R
$$

ARZ036-221100-
EAST ARKANSAS

CITY           SKY/WX    TMP DP  RH WIND       PRES   REMARKS
WEST MEMPHIS   CLEAR     57  54  89 N5        30.14R
$$

ARZ050-053-066-070-073-221100-
SOUTHWEST ARKANSAS

CITY           SKY/WX    TMP DP  RH WIND       PRES   REMARKS
ARKADELPHIA    FAIR      66  53  63 NE6       30.16R
CAMDEN         MOCLDY    64  54  68 NE6       30.14R
TEXARKANA      PTCLDY    67  58  72 NE6       30.14R
EL DORADO      CLEAR     69  55  60 N7        30.13R
DE QUEEN       CLEAR     62  57  83 CALM      30.14R
$$

ARZ056-057-069-221100-
SOUTHEAST ARKANSAS

CITY           SKY/WX    TMP DP  RH WIND       PRES   REMARKS
PINE BLUFF     CLEAR     61  52  72 N7        30.15R
STUTTGART      CLEAR     57  52  82 N9        30.16R
MONTICELLO     PTCLDY    66  52  60 VRB6      30.12R

$$




USA.gov is the U.S. government's official web portal to all federal, state and local government web resources and services.